When you browse on this site, cookies collect data to enhance your experience and personalize the content and advertising you see.
Visit our Privacy Policy to learn more. By continuing to use the site, you agree to this use of cookies and data.
  • In United Kingdom
  • List of Countries
  • For 7 days
  • Water Temperature
  • Satellite Maps
  • Weather Map
  • Weather Widgets
  • user-avatar
    Login

    Hourly Weather Korsakovka

    Today, 16 February, Saturday

    Time Temperature Precipitation Wind Pressure Humidity
    00:00 -11°C° 0 mm 1 mps 750 mmHg 85%
    01:00 -11°C° 0 mm 1 mps 749 mmHg 86%
    02:00 -11°C° 0 mm 1 mps 749 mmHg 86%
    03:00 -12°C° 0 mm 1 mps 748 mmHg 86%
    04:00 -12°C° 0 mm 0 mps 748 mmHg 85%
    05:00 -12°C° 0 mm 1 mps 748 mmHg 84%
    06:00 -15°C° 0 mm 2 mps 748 mmHg 83%
    07:00 -15°C° 0 mm 2 mps 748 mmHg 82%
    08:00 -13°C° 0 mm 2 mps 748 mmHg 78%
    09:00 -12°C° 0 mm 2 mps 748 mmHg 75%
    10:00 -9°C° 0 mm 1 mps 748 mmHg 70%
    11:00 -8°C° 0 mm 2 mps 748 mmHg 67%
    12:00 -8°C° 0 mm 3 mps 748 mmHg 64%
    13:00 -7°C° 0 mm 3 mps 747 mmHg 61%
    14:00 -8°C° 0 mm 3 mps 747 mmHg 63%
    15:00 -9°C° 0 mm 4 mps 747 mmHg 64%
    16:00 -9°C° 0 mm 4 mps 747 mmHg 66%
    17:00 -10°C° 0 mm 3 mps 747 mmHg 70%
    18:00 -12°C° 0 mm 3 mps 746 mmHg 74%
    19:00 -13°C° 0 mm 2 mps 746 mmHg 78%
    20:00 -13°C° 0 mm 2 mps 746 mmHg 79%
    21:00 -12°C° 0 mm 1 mps 746 mmHg 79%
    22:00 -12°C° 0 mm 1 mps 745 mmHg 79%
    23:00 -12°C° 0 mm 1 mps 745 mmHg 80%

    Tomorrow, 17 February, Sunday

    Time Temperature Precipitation Wind Pressure Humidity
    00:00 -12°C° 0 mm 1 mps 745 mmHg 81%
    01:00 -14°C° 0 mm 2 mps 744 mmHg 82%
    02:00 -13°C° 0 mm 2 mps 744 mmHg 83%
    03:00 -13°C° 0 mm 2 mps 744 mmHg 84%
    04:00 -13°C° 0 mm 2 mps 743 mmHg 84%
    05:00 -13°C° 0 mm 2 mps 743 mmHg 83%
    06:00 -13°C° 0 mm 2 mps 743 mmHg 82%
    07:00 -11°C° 0 mm 1 mps 743 mmHg 81%
    08:00 -9°C° 0 mm 1 mps 743 mmHg 79%
    09:00 -9°C° 0 mm 2 mps 743 mmHg 76%
    10:00 -7°C° 0 mm 2 mps 743 mmHg 73%
    11:00 -7°C° 0 mm 3 mps 744 mmHg 70%
    12:00 -7°C° 0 mm 4 mps 744 mmHg 67%
    13:00 -6°C° 0 mm 5 mps 744 mmHg 64%
    14:00 -6°C° 0 mm 5 mps 744 mmHg 64%
    15:00 -5°C° 0 mm 4 mps 744 mmHg 64%
    16:00 -7°C° 0 mm 4 mps 744 mmHg 64%
    17:00 -7°C° 0 mm 3 mps 745 mmHg 68%
    18:00 -8°C° 0 mm 2 mps 745 mmHg 72%
    19:00 -9°C° 0 mm 2 mps 745 mmHg 76%
    20:00 -8°C° 0 mm 1 mps 746 mmHg 76%
    21:00 -8°C° 0 mm 1 mps 746 mmHg 77%
    22:00 -9°C° 0 mm 0 mps 746 mmHg 77%
    23:00 -8°C° 0 mm 1 mps 746 mmHg 79%

    Day after tomorrow, 18 February, Monday

    Time Temperature Precipitation Wind Pressure Humidity
    00:00 -8°C° 0 mm 1 mps 746 mmHg 81%
    01:00 -8°C° 0 mm 1 mps 747 mmHg 83%
    02:00 -10°C° 0 mm 2 mps 747 mmHg 82%
    03:00 -10°C° 0 mm 2 mps 748 mmHg 81%
    04:00 -13°C° 0 mm 3 mps 748 mmHg 80%
    05:00 -13°C° 0 mm 3 mps 749 mmHg 79%
    06:00 -13°C° 0 mm 2 mps 750 mmHg 79%
    07:00 -13°C° 0 mm 2 mps 750 mmHg 79%
    08:00 -10°C° 0 mm 2 mps 751 mmHg 75%
    09:00 -8°C° 0 mm 2 mps 752 mmHg 71%
    10:00 -7°C° 0 mm 2 mps 753 mmHg 67%
    11:00 -6°C° 0 mm 3 mps 753 mmHg 64%
    12:00 -5°C° 0 mm 4 mps 754 mmHg 60%
    13:00 -4°C° 0 mm 4 mps 754 mmHg 57%
    14:00 -4°C° 0 mm 4 mps 754 mmHg 58%
    15:00 -5°C° 0 mm 4 mps 755 mmHg 59%
    16:00 -5°C° 0 mm 4 mps 755 mmHg 60%
    17:00 -7°C° 0 mm 4 mps 755 mmHg 66%
    18:00 -8°C° 0 mm 3 mps 756 mmHg 72%
    19:00 -9°C° 0 mm 2 mps 756 mmHg 78%
    20:00 -9°C° 0 mm 2 mps 756 mmHg 78%
    21:00 -9°C° 0 mm 2 mps 756 mmHg 79%
    22:00 -9°C° 0 mm 2 mps 756 mmHg 79%
    23:00 -9°C° 0 mm 2 mps 756 mmHg 80%

    19 February, Tuesday

    Time Temperature Precipitation Wind Pressure Humidity
    00:00 -9°C° 0 mm 3 mps 756 mmHg 81%
    01:00 -9°C° 0 mm 3 mps 756 mmHg 82%
    02:00 -9°C° 0 mm 3 mps 756 mmHg 83%
    03:00 -7°C° 0 mm 2 mps 756 mmHg 83%
    04:00 -7°C° 0 mm 2 mps 755 mmHg 84%
    05:00 -7°C° 0 mm 2 mps 755 mmHg 84%
    06:00 -8°C° 0 mm 2 mps 755 mmHg 84%
    07:00 -8°C° 0 mm 2 mps 755 mmHg 84%
    08:00 -7°C° 0 mm 3 mps 755 mmHg 80%
    09:00 -5°C° 0 mm 3 mps 755 mmHg 77%
    10:00 -4°C° 0 mm 3 mps 756 mmHg 73%
    11:00 -3°C° 0 mm 4 mps 755 mmHg 72%
    12:00 -2°C° 0 mm 4 mps 755 mmHg 70%
    13:00 -1°C° 0 mm 5 mps 755 mmHg 68%
    14:00 -1°C° 0 mm 5 mps 755 mmHg 68%
    15:00 -1°C° 0 mm 5 mps 755 mmHg 67%
    16:00 -2°C° 0 mm 4 mps 755 mmHg 66%
    17:00 -3°C° 0 mm 4 mps 755 mmHg 70%
    18:00 -5°C° 0 mm 3 mps 755 mmHg 74%
    19:00 -7°C° 0 mm 3 mps 755 mmHg 78%
    20:00 -6°C° 0 mm 2 mps 755 mmHg 77%
    21:00 -7°C° 0 mm 2 mps 756 mmHg 77%
    22:00 -7°C° 0 mm 2 mps 756 mmHg 77%
    23:00 -7°C° 0 mm 2 mps 756 mmHg 76%

    20 February, Wednesday

    Time Temperature Precipitation Wind Pressure Humidity
    00:00 -6°C° 0 mm 1 mps 756 mmHg 76%
    01:00 -7°C° 0 mm 1 mps 756 mmHg 76%
    02:00 -7°C° 0 mm 1 mps 756 mmHg 76%
    03:00 -7°C° 0 mm 1 mps 756 mmHg 76%
    04:00 -7°C° 0 mm 1 mps 757 mmHg 77%
    05:00 -8°C° 0 mm 1 mps 757 mmHg 75%
    06:00 -8°C° 0 mm 1 mps 757 mmHg 73%
    07:00 -9°C° 0 mm 2 mps 757 mmHg 71%
    08:00 -9°C° 0 mm 2 mps 758 mmHg 71%
    09:00 -8°C° 0 mm 2 mps 758 mmHg 71%
    10:00 -7°C° 0 mm 2 mps 758 mmHg 71%
    11:00 -6°C° 0 mm 2 mps 758 mmHg 69%
    12:00 -5°C° 0 mm 2 mps 758 mmHg 66%
    13:00 -4°C° 0 mm 2 mps 758 mmHg 64%
    14:00 -4°C° 0 mm 2 mps 758 mmHg 67%
    15:00 -4°C° 0 mm 2 mps 758 mmHg 70%
    16:00 -5°C° 0 mm 2 mps 758 mmHg 73%
    17:00 -6°C° 0 mm 2 mps 758 mmHg 79%
    18:00 -8°C° 0 mm 2 mps 758 mmHg 84%
    19:00 -9°C° 0 mm 2 mps 758 mmHg 89%
    20:00 -8°C° 0 mm 1 mps 758 mmHg 90%
    21:00 -9°C° 0 mm 1 mps 758 mmHg 90%
    22:00 -9°C° 0 mm 1 mps 758 mmHg 91%
    23:00 -10°C° 0 mm 1 mps 757 mmHg 91%

    21 February, Thursday

    Time Temperature Precipitation Wind Pressure Humidity
    00:00 -10°C° 0 mm 1 mps 757 mmHg 92%
    01:00 -10°C° 0 mm 1 mps 757 mmHg 92%
    02:00 -10°C° 0 mm 1 mps 756 mmHg 92%
    03:00 -10°C° 0 mm 0 mps 756 mmHg 91%
    04:00 -10°C° 0 mm 0 mps 756 mmHg 91%
    05:00 -10°C° 0 mm 0 mps 755 mmHg 91%
    06:00 -10°C° 0 mm 0 mps 755 mmHg 92%
    07:00 -10°C° 0 mm 0 mps 755 mmHg 92%
    08:00 -9°C° 0 mm 1 mps 755 mmHg 90%
    09:00 -8°C° 0 mm 1 mps 755 mmHg 89%
    10:00 -7°C° 0 mm 1 mps 755 mmHg 87%
    11:00 -6°C° 0 mm 1 mps 755 mmHg 85%
    12:00 -4°C° 0 mm 1 mps 755 mmHg 84%
    13:00 -5°C° 0 mm 2 mps 755 mmHg 82%
    14:00 -5°C° 0.1 mm 2 mps 755 mmHg 83%
    15:00 -4°C° 0.1 mm 2 mps 755 mmHg 83%
    16:00 -4°C° 0.1 mm 2 mps 755 mmHg 84%
    17:00 -5°C° 0 mm 2 mps 755 mmHg 85%
    18:00 -6°C° 0 mm 2 mps 756 mmHg 87%
    19:00 -7°C° 0 mm 2 mps 756 mmHg 88%
    20:00 -7°C° 0 mm 2 mps 756 mmHg 88%
    21:00 -8°C° 0 mm 2 mps 757 mmHg 88%
    22:00 -9°C° 0 mm 2 mps 757 mmHg 89%
    23:00 -9°C° 0 mm 2 mps 757 mmHg 89%
    Show more